[[{"header":{"parameterUnit":"m.s-1","parameterCategory":1,"la1":30.2992,"la2":30.254,"lo1":-89.0895,"lo2":-89.0443,"dy":0.0025,"dx":0.0025,"nx":19,"ny":19,"refTime":"2026-04-27T21:00:00:Z","depth":0,"parameterNumber":2,"parameterNumberName":"U-component_of_WINDS"},"data":[0,0,0,-3.5791,-3.5794,-3.595,-3.595,-3.6148,-3.6149,0,0,0,0,0,0,0,0,0,0,0,-3.5743,-3.5745,-3.579,-3.5794,-3.595,-3.595,-3.6147,-3.6149,0,0,0,0,0,0,0,0,0,0,0,-3.5743,-3.5744,-3.5746,-3.5795,-3.5949,-3.595,-3.6147,-3.603,0,0,0,0,0,0,0,0,0,0,-3.588,-3.5834,-3.5744,-3.5746,-3.5796,-3.5949,-3.595,-3.6025,-3.6038,-3.6077,0,-3.6111,0,-3.6133,-3.6163,-3.6163,0,0,0,-3.5795,-3.5824,-3.5867,-3.5746,-3.5797,-3.5949,-3.588,-3.6032,-3.6046,-3.6094,-3.6113,-3.6121,-3.6136,-3.6164,-3.6165,-3.6386,-3.6387,0,0,-3.5787,-3.5771,-3.5857,-3.5876,-3.5852,-3.5875,-3.5885,-3.6041,-3.6061,-3.6114,-3.6125,-3.614,-3.6165,-3.6167,-3.6385,-3.6386,0,0,0,-3.5761,-3.5765,-3.5804,-3.5868,-3.5896,-3.5879,-3.5891,-3.6054,-3.6068,-3.6128,-3.6142,-3.6166,-3.6169,-3.6384,-3.6385,-3.6417,0,0,0,-3.5756,-3.575,-3.58,-3.5792,-3.5893,-3.5977,-3.5901,-3.6058,-3.6076,-3.6141,-3.6166,-3.6171,-3.6383,-3.6385,-3.6414,-3.6434,0,0,0,-3.5734,-3.5747,-3.5769,-3.5791,-3.5857,-3.5975,-3.5998,-3.6062,-3.6085,-3.6163,-3.6171,-3.6382,-3.6384,-3.6411,-3.643,-3.6487,0,0,0,-3.5705,-3.5796,-3.577,-3.5877,-3.5856,-3.5994,-3.5997,-3.6101,-3.6173,-3.6167,-3.6383,-3.6385,-3.641,-3.6427,-3.6484,-3.653,-3.6549,0,0,-3.5811,-3.5808,-3.5873,-3.5854,-3.5992,-3.5971,-3.6116,-3.6196,-3.6219,-3.6329,-3.6335,-3.6415,-3.6429,-3.6486,-3.6661,-3.6676,0,0,0,-3.5901,-3.5946,-3.5987,-3.6054,-3.6118,-3.6175,-3.6235,-3.6266,-3.636,-3.6272,-3.6453,-3.6462,-3.6496,-3.6519,-3.6531,-3.656,-3.6396,-3.6395,-3.6395,-3.6026,-3.605,-3.6158,-3.6201,-3.6266,-3.6329,-3.6384,-3.6435,-3.644,-3.6483,-3.6515,-3.6618,-3.6645,-3.6654,-3.6685,-3.6543,-3.6543,-3.6544,-3.6544,-3.6181,-3.6249,-3.6255,-3.6362,-3.6387,-3.6478,-3.6542,-3.6543,-3.663,-3.6596,-3.6627,-3.6585,-3.6669,-3.6697,-3.6546,-3.6546,-3.6546,-3.6545,-3.6545,-3.6264,-3.6301,-3.6336,-3.6436,-3.6511,-3.6552,-3.6636,-3.6657,-3.6677,-3.6708,-3.6744,-3.6743,-3.6744,-3.6724,-3.6725,-3.6725,-3.6725,-3.6725,-3.6726,-3.6335,-3.6374,-3.6442,-3.6518,-3.6564,-3.6628,-3.6692,-3.6739,-3.6795,-3.6803,-3.6804,-3.6804,-3.6674,-3.6639,-3.6731,-3.673,-3.673,-3.6729,-3.6729,-3.648,-3.6451,-3.6555,-3.6601,-3.6693,-3.6766,-3.6792,-3.6884,-3.6926,-3.6967,-3.6962,-3.6862,-3.6861,-3.6851,-3.6823,-3.6957,-3.6957,-3.6957,-3.6957,-3.6548,-3.655,-3.6662,-3.6734,-3.6808,-3.6842,-3.696,-3.7012,-3.7061,-3.7088,-3.7073,-3.7037,-3.7027,-3.7032,-3.7018,-3.6992,-3.7166,-3.7166,-3.7166,-3.6638,-3.6648,-3.6743,-3.6791,-3.6865,-3.6928,-3.7039,-3.7122,-3.7172,-3.7175,-3.711,-3.7101,-3.7044,-3.7025,-3.7023,-3.7002,-3.6954,0,0]},{"header":{"parameterUnit":"m.s-1","parameterCategory":1,"la1":30.2992,"la2":30.254,"lo1":-89.0895,"lo2":-89.0443,"dy":0.0025,"dx":0.0025,"nx":19,"ny":19,"refTime":"2026-04-27T21:00:00:Z","depth":0,"parameterNumber":3,"parameterNumberName":"V-component_of_WINDS"},"data":[0,0,0,2.4643,2.4644,2.4712,2.4712,2.4792,2.4793,0,0,0,0,0,0,0,0,0,0,0,2.462,2.462,2.4643,2.4644,2.4712,2.4712,2.4792,2.4793,0,0,0,0,0,0,0,0,0,0,0,2.462,2.462,2.4621,2.4644,2.4711,2.4712,2.4792,2.4743,0,0,0,0,0,0,0,0,0,0,2.4678,2.4655,2.462,2.4621,2.4645,2.4711,2.4712,2.4741,2.4746,2.476,0,2.4772,0,2.4784,2.4798,2.4799,0,0,0,2.4646,2.4651,2.4671,2.4621,2.4645,2.4711,2.4682,2.4744,2.475,2.4767,2.4773,2.4776,2.4785,2.4799,2.4799,2.4875,2.4875,0,0,2.4642,2.463,2.4667,2.4675,2.4665,2.4679,2.4684,2.4748,2.4753,2.4773,2.4778,2.4787,2.4799,2.48,2.4875,2.4875,0,0,0,2.463,2.4628,2.4647,2.4672,2.4684,2.4681,2.4686,2.475,2.4758,2.4779,2.4787,2.48,2.4801,2.4874,2.4875,2.4878,0,0,0,2.4628,2.4621,2.4645,2.4639,2.4683,2.4718,2.4687,2.4753,2.4761,2.4787,2.48,2.4801,2.4874,2.4875,2.4877,2.488,0,0,0,2.4616,2.4619,2.4628,2.4638,2.4667,2.4718,2.4729,2.4755,2.4766,2.4799,2.4802,2.4874,2.4874,2.4876,2.488,2.4898,0,0,0,2.46,2.4629,2.4628,2.4663,2.4666,2.4719,2.4728,2.4768,2.4797,2.48,2.4874,2.4875,2.4876,2.4879,2.4897,2.4911,2.4916,0,0,2.463,2.4632,2.4654,2.4655,2.4706,2.471,2.4761,2.4797,2.481,2.4852,2.4854,2.4877,2.4879,2.4897,2.4946,2.495,0,0,0,2.4659,2.4674,2.469,2.4718,2.4747,2.4773,2.4803,2.4817,2.4853,2.483,2.4889,2.4891,2.4902,2.4909,2.4912,2.4922,2.4877,2.4877,2.4877,2.4683,2.47,2.4737,2.4762,2.4789,2.482,2.4843,2.4867,2.4875,2.4889,2.4901,2.4929,2.4937,2.4939,2.495,2.491,2.491,2.491,2.491,2.4727,2.4752,2.4764,2.4805,2.4822,2.4856,2.4888,2.4893,2.4927,2.492,2.4931,2.4922,2.4943,2.4953,2.491,2.491,2.491,2.491,2.491,2.4745,2.476,2.4777,2.4819,2.485,2.4874,2.4907,2.4922,2.4935,2.4946,2.4961,2.4961,2.4963,2.4952,2.4952,2.4952,2.4952,2.4952,2.4953,2.4756,2.4776,2.4802,2.4837,2.4857,2.4885,2.4919,2.4939,2.4964,2.4972,2.4973,2.498,2.4942,2.4932,2.4954,2.4954,2.4954,2.4953,2.4953,2.4795,2.4789,2.4829,2.485,2.4893,2.4923,2.4941,2.4981,2.5,2.5016,2.5021,2.4991,2.4994,2.4991,2.4983,2.5017,2.5017,2.5017,2.5017,2.481,2.4813,2.4859,2.4891,2.4923,2.4945,2.499,2.5017,2.5043,2.5056,2.5053,2.5044,2.5041,2.5046,2.5042,2.5035,2.5081,2.5081,2.5081,2.4835,2.4843,2.4878,2.4905,2.4941,2.497,2.5014,2.5049,2.5078,2.5084,2.5066,2.5063,2.5049,2.5043,2.5048,2.5042,2.5029,0,0]}]]